Regional Weather Roundup
Issued by NWS

Home | Current Version | Previous Version | Text Only | Print | Product List | Glossary On
Versions: 1 2 3 4 5 6 7 8 9 10 11 12 13 14 15 16 17 18 19 20 21 22 23 24 25 26 27 28 29 30 31 32 33 34 35 36 37 38 39 40 41 42 43 44 45 46 47 48 49 50
000
ASUS43 KMPX 261601
RWRMN
WEATHER ROUNDUP FOR MINNESOTA
NATIONAL WEATHER SERVICE TWIN CITIES/CHANHASSEN MN
1000 AM CST SUN FEB 26 2017


NOTE: "FAIR" INDICATES FEW OR NO CLOUDS BELOW 12,000 FEET WITH NO
SIGNIFICANT WEATHER AND/OR OBSTRUCTIONS TO VISIBILITY. N/A MEANS
CURRENT SKY AND/OR WEATHER CONDITIONS ARE NOT AVAILABLE.

MNZ060>063-068>070-261700-
   Twin Cities Metro

CITY           SKY/WX    TMP DP  RH WIND       PRES   REMARKS
TWIN CITIES    MOSUNNY   30  20  66 SW14      29.78R WCI  19
ST PAUL        PTSUNNY   29  22  75 SW5       29.79R WCI  24
CRYSTAL        MOSUNNY   30  20  66 SW9       29.75R WCI  22
BLAINE         MOSUNNY   32  25  74 SW9       29.75R WCI  24
LAKEVILLE      MOSUNNY   27  21  80 SW6       29.78R WCI  20
EDEN PRAIRIE   MOSUNNY   30  21  69 SW13      29.77R WCI  20
SOUTH ST PAUL  PTSUNNY   30  21  68 SW7       29.78R WCI  24
LAKE ELMO      FAIR      30  23  74 SW7       29.77R WCI  23
$$
MNZ001>005-007-008-013>017-022>024-027-028-261700-
   Northwest Minnesota

CITY           SKY/WX    TMP DP  RH WIND       PRES   REMARKS
BEMIDJI        FLURRIES  11   4  75 NW8       29.76R WCI  -1
HALLOCK        SUNNY      7   1  78 W3        29.82R
ROSEAU         SUNNY     10   3  72 W7        29.78R WCI   0
WARROAD        SUNNY     12   3  67 W7        29.77R WCI   2
THIEF RVR FALL   N/A     14   6  70 MISG        N/A
CROOKSTON      MOSUNNY   10   7  85 NW7       29.84R WCI   0
FOSSTON        SUNNY     16   5  62 NW5       29.80R WCI   9
DETROIT LAKES  LGT SNOW  14  10  85 NW10      29.79R WCI   1
MOORHEAD       SUNNY     12   7  79 N10       29.85R WCI  -1
PARK RAPIDS    SUNNY     16   6  65 NW10      29.74R WCI   4
MAHNOMEN       FLURRIES  11   7  82 N6        29.80R WCI   2
$$
MNZ006-009>011-018-025>026-261700-
   North Central Minnesota

CITY           SKY/WX    TMP DP  RH WIND       PRES   REMARKS
BAUDETTE       SUNNY     10  -2  58 NW9       29.75R WCI  -3
FLAG ISLAND    SUNNY      9   1  72 CALM      29.75R
INTL FALLS     MOSUNNY   11  -1  58 W12       29.73R WCI  -3
WASKISH        SUNNY     10   3  72 W5        29.77R WCI   2
BIG FORK       SUNNY     12   1  62 NW3       29.73R
LONGVILLE      FLURRIES  16   9  73 NW8       29.74R WCI   5
GRAND RAPIDS   FLURRIES  15   8  73 NW14      29.74R WCI   0
CRANE LAKE     PTSUNNY   10   3  72 NW8       29.73R WCI  -1
ORR            FLURRIES  10   1  67 NW10      29.68R WCI  -3
COOK           FLURRIES  12   5  73 W13       29.70R WCI  -3
WALKER         FLURRIES  13   6  72 NW8       29.76R WCI   2
$$
MNZ012-019>021-037-261700-
   Northeast Minnesota

CITY           SKY/WX    TMP DP  RH WIND       PRES   REMARKS
DULUTH         SNOW      21  17  84 NW13      29.63R VSB 1/4 WCI   9
ELY            LGT SNOW  14   9  79 NW8       29.66R WCI   3
HIBBING        LGT SNOW  13   7  77 NW17      29.69R WCI  -4
EVELETH        LGT SNOW  17  11  77 NW8       29.68R WCI   7
DULUTH HARBOR  LGT SNOW  28  25  86 CALM      29.67S
TWO HARBORS    LGT SNOW  27  19  74 NW7       29.62R WCI  19
SILVER BAY     LGT SNOW  25  19  80 CALM      29.62R
GRAND MARAIS     N/A     25  14  63 MISG      29.64S
G MARAIS ARPRT FLURRIES  18   9  68 W6        29.57S WCI   9
$$
MNZ029>031-032-039>041-046>048-054>057-064-261700-
   West Central Minnesota

CITY           SKY/WX    TMP DP  RH WIND       PRES   REMARKS
FERGUS FALLS   SUNNY     12  10  92 N8        29.86R WCI   1
WHEATON        SUNNY     18  10  73 NW12      29.87R WCI   5
MORRIS         SUNNY     19  16  86 NW16      29.82R WCI   5
ALEXANDRIA     SUNNY     21  12  68 N15G21    29.78R WCI   8
ELBOW LAKE     FAIR      13  11  91 W12       29.82R WCI  -1
WADENA         SUNNY     16  12  86 NW9       29.75R WCI   4
GLENWOOD       MOSUNNY   25  19  80 NW17G24   29.77R WCI  11
APPLETON       MOSUNNY   23  16  74 NW13      29.83R WCI  11
BENSON         MOSUNNY   27  16  63 N17       29.82R WCI  14
MADISON        MOSUNNY   28  21  74 NW16      29.83R WCI  17
WILLMAR        PTSUNNY   30  23  74 W22       29.80R WCI  17
$$
MNZ033>034-036-042>043-049>051-058-059-261700-
   Central Minnesota

CITY           SKY/WX    TMP DP  RH WIND       PRES   REMARKS
ST CLOUD       PTSUNNY   31  21  66 W16G25    29.73R WCI  20
SAUK CENTRE    CLOUDY    27  17  65 W16       29.75R WCI  15
PAYNESVILLE    PTSUNNY   30  22  71 NW14G23   29.76R WCI  19
AITKIN         LGT SNOW  21  12  68 N8        29.71R WCI  12
PINE RIVER     SUNNY     16   9  73 NW12      29.78R WCI   3
BRAINERD       LGT SNOW  18  12  77 N14       29.74R WCI   4
STAPLES        SUNNY     18  12  79 N6        29.75R WCI   9
LONG PRAIRIE   FAIR      25  16  68 W14       29.75R WCI  13
LITTLE FALLS   CLOUDY    28  19  69 NW13G18   29.74R WCI  18
LITCHFIELD     MOSUNNY   32  25  74 NW15G22   29.76R WCI  22
BUFFALO        MOSUNNY   32  24  73 W9G16     29.76S WCI  24
MAPLE LAKE     PTSUNNY   32  26  79 W13G20    29.75R WCI  22
HUTCHINSON     PTSUNNY   32  27  81 W17       29.78R WCI  20
$$
MNZ037-044-045-052-053-261700-
   East Central Minnesota

CITY           SKY/WX    TMP DP  RH WIND       PRES   REMARKS
PRINCETON      PTSUNNY   34  25  69 W12G18    29.73R WCI  25
MORA           FLURRIES  30  23  74 W9        29.72R WCI  22
CAMBRIDGE      PTSUNNY   34  23  64 SW7       29.71S WCI  28
RUSH CITY      CLOUDY    30  23  74 SW9       29.72S WCI  22
MOOSE LAKE     FLURRIES  28  23  80 W9        29.66R WCI  20
HINCKLEY       FLURRIES  30  25  80 W10G17    29.70R WCI  21
CLOQUET        LGT SNOW  25  19  80 NW15G21   29.65R WCI  12
MCGREGOR       CLOUDY    19  14  79 NW13G21   29.72R WCI   7
$$
MNZ071>073-080-081-089-090-097-098-261700-
   Southwest Minnesota

CITY           SKY/WX    TMP DP  RH WIND       PRES   REMARKS
MONTEVIDEO     PTSUNNY   28  21  74 N17G24    29.83R WCI  16
GRANITE FALLS  PTSUNNY   32  25  74 W21       29.83R WCI  20
CANBY          MOSUNNY   32  24  72 W15       29.83R WCI  21
MARSHALL       PTSUNNY   31  24  75 NW14      29.81R WCI  21
REDWOOD FALLS  CLOUDY    32  23  69 W16G22    29.80R WCI  21
OLIVIA         PTSUNNY   32  25  74 NW17G23   29.79R WCI  21
PIPESTONE      SUNNY     30  21  69 NW10      29.79R WCI  21
WINDOM         SUNNY     30  25  80 W9        29.80R WCI  22
WORTHINGTON    SUNNY     27  20  75 W14       29.82R WCI  16
JACKSON        SUNNY     27  19  74 W10       29.82R WCI  17
TRACY          MOSUNNY   32  26  79 NW14G21   29.81R WCI  22
SLAYTON        SUNNY     30  24  81 W10       29.80R WCI  21
$$
MNZ065>067-074>077-082>085-091>093-261700-
   South Central Minnesota

CITY           SKY/WX    TMP DP  RH WIND       PRES   REMARKS
MANKATO          N/A     26  21  81 W14       29.81R WCI  14
NEW ULM        PTSUNNY   30  23  74 W10       29.80R WCI  21
ST JAMES       MOSUNNY   28  23  80 CALM      29.82R
FAIRMONT       SUNNY     27  19  72 W14       29.83R WCI  16
GLENCOE        CLOUDY    31  27  84 W10       29.78R WCI  22
FARIBAULT      CLOUDY    25  18  74 SW9       29.81R WCI  15
OWATONNA       MOSUNNY   23  18  80 SW10      29.81R WCI  12
WASECA         CLOUDY    23  19  86 SW12      29.82R WCI  12
ALBERT LEA     PTSUNNY   25  18  74 W7        29.82R WCI  17
$$
MNZ078>079-086>088-094>096-261700-
   Southeast Minnesota

CITY           SKY/WX    TMP DP  RH WIND       PRES   REMARKS
ROCHESTER      SUNNY     22  18  85 SW14      29.80R WCI   9
RED WING       CLOUDY    27  18  69 SW5       29.79S WCI  21
STANTON        CLOUDY    27  19  74 SW12      29.78R WCI  16
WINONA         SUNNY     32  21  64 W8        29.83R WCI  25
AUSTIN         SUNNY     25  18  74 SW10      29.82R WCI  15
PRESTON        SUNNY     28  19  71 SW12      29.81R WCI  17
$$
ABBREVIATIONS USED IN REMARKS
   TC - TEMPERATURES IN CELSIUS
  WCI - WIND CHILL INDEX
   HX - HEAT INDEX
  VSB - VISIBILITY
$$




USA.gov is the U.S. government's official web portal to all federal, state and local government web resources and services.